Temperature
14 14 14 14 14 14 14 14 15 15 15 15 15 15 15 15 15 15 15 15 15 15 15 15 15 15 15 15 15 15 15 15 15 15 15 15 15 15 15 15 15 15 15
14 14 14 14 14 14 14 14 14 14 15 15 15 15 15 15 15 15 15 15 15 15 15 15 15 15 15 15 15 15 15 15 15 15 15 15 15 15 15 15 15 15 15
14 14 14 14 14 14 14 14 14 14 14 14 14 14 14 14 15 15 15 15 15 15 15 15 15 15 15 15 15 15 15 15 15 15 15 15 15 15 15 15 15 15 15
14 14 14 14 14 14 14 14 14 14 14 14 14 14 14 14 14 15 15 15 15 15 15 15 15 15 15 15 15 14 15 15 15 15 15 15 15 14 14 14 14 15 15
14 14 14 14 14 13 13 13 13 14 14 14 14 14 14 14 14 14 14 15 15 15 15 15 14 14 14 14 14 14 14 14 14 14 14 14 14 14 14 14 14 14 15
14 14 14 14 13 13 13 13 13 13 13 14 14 14 14 14 14 14 14 14 14 14 14 14 14 14 14 14 14 14 14 14 14 14 14 14 14 14 14 14 14 14 14
14 14 13 13 13 13 13 13 13 13 13 13 13 13 14 14 14 14 14 14 14 14 14 14 14 14 14 14 14 14 14 14 14 14 14 14 14 14 14 14 14 14 14
14 13 13 13 13 13 13 13 13 13 13 13 13 13 13 13 13 13 13 13 13 14 14 14 14 14 14 14 14 14 14 14 14 14 14 14 14 14 14 14 14 14 14
13 13 13 13 13 13 13 13 13 13 13 13 13 13 13 13 13 13 13 13 13 13 13 13 13 13 13 13 13 13 13 13 13 13 13 13 14 14 14 14 14 13 13
13 13 13 13 12 12 12 12 12 12 12 12 12 12 13 13 13 13 13 13 13 13 13 13 13 13 13 13 13 13 13 13 13 13 13 13 13 13 13 13 13 13 13
12 12 12 12 12 12 12 12 12 12 12 12 12 12 12 12 12 12 12 12 13 13 13 13 13 13 13 13 13 13 13 13 13 13 13 13 13 13 13 13 13 13 13
12 12 12 12 12 12 12 12 12 12 11 11 11 12 12 12 12 12 12 12 12 12 12 12 12 12 12 12 12 12 12 12 12 12 13 13 13 13 13 13 12 12 12
12 12 12 12 11 11 11 11 11 11 11 11 11 11 11 11 12 12 12 12 12 12 12 12 12 12 12 12 12 12 12 12 12 12 12 12 12 12 12 12 12 12 12
12 12 11 11 11 11 11 11 11 11 11 11 11 11 11 11 11 11 11 11 12 12 12 12 12 12 12 12 12 12 12 12 12 12 12 12 12 12 12 12 12 12 12
11 11 11 11 11 11 11 11 11 11 10 10 10 10 10 10 11 11 11 11 11 11 11 11 11 11 11 11 11 11 11 11 11 11 12 12 12 12 11 11 11 11 11
11 11 11 11 11 11 11 11 10 10 10 10 10 10 10 10 10 10 11 11 10 10 11 11 11 11 11 11 11 11 11 11 11 11 11 11 11 11 11 11 11 11 11
11 11 11 11 11 10 10 10 10 10 10 10 10 10 10 10 10 10 10 10 10 10 10 10 10 10 10 10 10 10 10 10 10 11 11 11 11 11 11 11 11 10 10
11 11 11 11 10 10 10 10 10 10 10 10 10 10 10 10 10 10 10 10 10 10 10 10 10 10 10 10 10 10 10 10 10 10 10 10 10 10 10 10 10 10 10
11 11 10 10 10 10 10 10 10 10 9 9 9 9 9 9 9 9 9 9 9 9 9 9 9 10 9 9 9 9 9 9 10 10 10 10 10 10 10 10 10 10 10
10 10 10 10 10 10 9 9 9 9 9 9 9 9 9 9 9 9 9 9 9 9 9 9 9 9 9 9 9 9 9 9 9 9 9 9 9 9 9 9 9 9 9
10 10 10 10 10 9 9 9 9 9 9 9 9 9 9 8 8 8 8 9 9 9 9 9 9 9 9 9 8 8 8 8 9 9 9 9 9 9 9 9 9 9 9
10 10 9 9 9 9 9 9 9 9 8 8 8 8 8 8 8 8 8 8 8 8 8 8 8 8 8 8 8 8 7 7 8 8 8 8 8 9 9 9 9 9 8
9 9 9 9 9 9 9 9 8 8 8 8 8 8 8 8 8 8 7 8 8 8 7 8 8 8 8 8 8 8 7 7 7 7 7 8 8 8 8 8 8 8 8
9 9 9 9 9 8 8 8 8 8 8 7 7 7 7 7 7 7 7 7 7 7 7 7 7 8 8 8 7 7 8 8 7 7 7 7 7 8 8 8 8 8 8
8 9 9 8 8 8 8 8 7 7 7 7 7 7 7 7 7 7 7 7 7 7 7 7 7 7 7 7 7 7 7 7 7 7 6 7 7 7 7 7 7 7 7
8 8 8 8 8 8 7 7 7 7 7 7 6 6 6 6 6 6 6 6 6 6 7 7 7 7 7 7 7 7 7 7 7 7 7 7 7 7 7 7 7 7 7
Wind_Speed
3 5 8 9 9 9 8 8 8 8 8 8 8 8 8 8 9 9 9 8 9 9 9 10 10 11 11 11 12 13 14 14 14 14 14 14 14 14 15 15 14 14 16
6 7 9 9 9 8 8 8 8 8 7 7 7 7 7 7 7 8 7 7 7 8 9 10 10 10 11 11 12 12 13 13 13 13 13 13 12 13 14 14 13 13 15
7 8 9 9 9 9 8 8 7 7 7 7 6 6 6 6 7 7 6 6 7 8 8 9 10 10 10 11 11 11 12 12 12 12 11 10 11 12 12 13 13 14 15
9 9 8 9 8 8 8 8 7 6 6 6 6 5 5 6 6 6 6 6 7 7 8 8 9 9 9 10 10 10 10 10 10 10 9 9 9 11 12 13 14 14 14
8 9 9 9 8 8 8 8 7 6 6 6 5 5 5 6 6 6 6 7 7 7 7 8 8 8 8 8 9 9 10 10 10 9 8 8 8 10 12 13 13 14 14
7 8 9 9 8 8 8 8 7 7 6 5 5 5 5 5 6 6 6 6 7 7 8 8 7 7 8 8 8 9 10 10 9 8 8 8 8 10 12 12 13 13 13
6 7 9 8 7 7 7 7 7 7 6 6 5 5 5 5 6 6 6 6 6 7 8 8 7 7 7 7 8 8 9 10 9 8 7 7 9 10 11 12 12 12 13
7 7 8 8 8 7 6 7 7 6 6 6 6 5 5 5 6 6 6 6 7 7 8 8 8 7 7 7 7 7 8 9 8 7 6 7 9 9 10 11 11 12 12
7 6 6 6 7 7 6 6 6 6 6 6 6 5 5 5 5 5 5 6 7 7 7 7 7 7 7 7 7 8 8 8 7 6 6 6 8 9 9 10 11 11 12
5 4 4 5 5 5 6 6 6 5 5 6 6 5 5 5 5 4 4 5 7 7 7 7 7 7 7 6 7 7 8 8 7 6 5 6 8 9 9 10 11 11 11
3 3 4 4 5 5 5 5 5 5 5 6 5 5 5 4 4 4 5 6 7 7 7 7 7 6 6 6 7 7 7 7 6 5 5 6 8 8 9 9 10 10 11
3 3 3 4 4 5 4 4 4 4 4 4 4 5 4 4 4 4 5 6 6 7 7 6 6 5 5 5 6 6 6 7 6 4 5 7 8 8 9 9 9 10 10
4 4 3 3 4 5 4 4 3 3 3 3 4 5 5 4 4 4 4 5 5 5 5 5 5 5 5 5 5 5 6 6 5 5 6 8 8 8 9 9 9 10 10
4 4 4 3 3 4 4 3 3 3 2 2 3 5 5 3 3 3 3 3 4 4 4 4 4 4 4 5 5 5 6 5 5 5 6 8 8 8 8 9 9 10 10
3 3 4 4 3 3 3 2 3 2 3 3 3 4 5 4 2 2 2 3 3 3 4 3 3 4 4 4 5 5 5 6 5 5 6 7 8 8 8 9 9 9 10
4 4 4 4 4 4 3 2 2 3 3 4 4 4 5 5 3 2 2 2 2 3 4 4 4 4 3 4 4 5 5 6 6 6 6 6 7 8 8 8 9 9 10
4 4 4 4 4 4 3 3 3 3 4 3 3 4 5 5 4 3 2 2 2 4 5 4 4 4 3 4 4 4 5 5 5 5 6 6 6 7 8 9 9 9 8
3 4 4 4 4 4 3 3 3 3 3 3 3 4 4 5 6 4 2 2 3 4 5 3 3 3 3 3 3 2 3 4 4 5 5 6 5 5 6 7 8 8 8
3 3 3 3 4 4 3 3 3 2 2 3 3 3 4 5 6 5 3 3 4 3 3 3 2 3 3 3 3 2 2 3 3 4 5 5 5 5 5 5 6 6 7
3 3 3 3 3 3 3 3 2 2 2 2 2 3 4 4 5 5 3 3 4 3 3 3 3 3 3 4 4 3 2 2 2 3 3 4 4 4 5 4 5 5 6
2 2 2 2 2 3 3 2 2 2 1 1 1 2 3 4 4 4 3 3 3 3 3 4 3 3 2 3 3 3 3 3 2 2 2 3 3 4 4 4 4 4 4
2 2 2 2 2 3 3 3 2 2 2 1 0 1 2 3 4 4 3 3 3 3 4 4 4 2 2 2 3 3 1 1 2 2 0 1 1 3 3 4 4 5 4
3 3 2 3 2 2 3 3 2 2 1 1 0 1 1 2 3 3 3 3 2 3 4 4 4 4 3 2 2 3 3 3 1 1 0 1 1 1 2 3 4 5 5
3 3 2 3 3 2 3 4 5 3 2 2 2 1 1 1 2 2 2 3 3 3 3 4 3 3 5 4 2 1 1 3 3 1 1 1 1 2 2 2 3 5 6
3 3 2 2 3 3 3 4 4 3 2 1 1 1 0 0 1 2 2 2 2 3 3 4 3 3 3 4 3 2 1 1 1 2 2 2 2 2 2 3 4 5 6
2 2 3 3 2 3 3 3 4 4 3 3 2 1 1 1 1 1 2 2 2 2 3 4 4 4 4 3 2 2 2 2 2 2 2 2 3 3 2 3 4 5 7
Wind_Direction
163 160 144 136 130 125 121 115 111 107 106 104 102 99 97 95 94 94 92 96 99 101 105 104 103 103 101 101 100 100 100 100 99 97 95 97 100 101 101 98 95 93 96
153 149 140 134 131 127 124 118 113 113 111 109 108 104 105 105 101 99 98 98 104 103 103 102 102 105 105 104 104 104 103 100 98 95 93 94 98 102 104 102 101 102 100
134 140 135 132 129 127 124 120 116 115 119 118 116 113 114 113 111 106 104 107 110 105 104 104 102 105 106 108 108 108 106 103 99 94 94 95 100 105 108 108 108 108 104
129 130 132 129 131 133 130 127 121 119 121 125 122 120 120 121 123 117 112 110 113 110 107 108 106 107 109 110 109 110 107 107 104 98 94 96 104 111 113 113 111 108 106
119 124 132 131 132 139 140 137 134 129 128 131 131 130 128 128 132 124 118 109 112 113 114 113 110 107 107 107 107 110 108 105 104 99 97 99 106 115 114 115 114 111 110
117 123 132 132 133 137 145 144 141 136 134 134 132 132 134 134 130 122 120 116 112 119 124 121 117 111 105 106 106 111 111 106 104 97 103 106 113 119 117 117 117 116 116
128 126 134 134 132 132 140 146 143 140 140 139 137 137 136 136 134 131 130 126 123 124 129 127 122 118 113 109 107 107 110 106 106 101 107 112 115 117 119 120 119 119 119
137 130 135 139 136 131 136 140 137 140 140 135 135 137 135 136 138 133 131 129 129 128 127 127 126 122 117 111 106 109 111 106 104 102 110 121 121 120 123 122 124 123 121
129 125 125 136 139 136 133 140 139 142 142 134 130 126 128 131 128 133 133 132 134 133 130 128 128 123 116 111 106 109 112 106 103 104 114 127 128 126 126 129 128 127 126
123 127 129 135 134 128 128 132 139 135 136 132 128 123 120 124 128 131 132 137 135 134 131 130 131 126 118 114 110 111 111 105 101 107 118 134 133 130 129 130 133 132 128
132 140 132 133 135 135 137 135 131 126 127 130 128 124 121 119 128 135 138 137 135 136 134 131 130 123 115 114 115 116 114 108 108 114 128 138 138 135 133 131 132 135 133
175 177 151 140 139 137 142 132 130 127 126 130 129 123 120 121 132 137 142 138 137 139 139 135 131 126 111 108 113 116 113 115 114 119 139 144 146 142 139 138 137 133 135
187 174 164 153 144 138 135 136 134 132 131 135 141 134 126 116 114 120 125 125 126 133 132 129 119 114 111 111 109 112 118 115 117 125 143 148 150 144 142 142 141 138 137
176 177 170 157 140 143 141 137 140 139 139 149 153 149 134 117 104 107 122 129 128 134 124 116 115 115 110 117 119 116 118 114 121 126 139 146 147 148 146 146 145 142 142
179 181 179 163 154 148 134 140 136 146 161 168 162 160 150 136 133 131 138 135 134 138 134 125 120 117 114 115 116 120 123 120 121 122 132 139 144 150 153 151 147 148 149
186 185 185 167 156 146 154 154 151 158 163 160 162 168 159 150 146 142 129 132 138 145 147 141 133 119 109 105 98 107 117 116 114 115 120 131 141 148 157 157 152 151 148
189 184 179 171 152 149 155 153 149 157 154 153 164 169 164 155 151 148 139 142 152 147 135 124 115 108 105 96 89 93 107 108 112 115 116 119 128 143 150 152 151 152 153
177 179 180 171 155 151 147 135 133 149 153 159 164 158 161 161 159 154 148 161 162 144 132 124 117 114 111 108 100 92 97 106 108 113 112 114 116 124 141 146 153 156 159
168 166 167 158 158 157 148 134 119 123 140 160 157 155 160 158 161 159 159 165 159 144 134 135 126 131 125 114 105 91 87 99 106 109 102 109 117 123 128 135 149 161 169
156 155 159 153 157 154 139 124 116 105 105 127 145 154 151 153 158 153 154 154 156 147 141 136 133 119 129 128 103 77 58 72 96 103 110 112 111 126 128 134 145 158 173
125 135 156 155 162 152 149 152 148 155 149 137 123 144 150 151 155 151 146 151 157 159 160 151 141 131 126 129 104 70 32 37 58 71 100 117 121 132 132 141 148 154 172
147 151 164 165 166 167 168 170 168 164 160 175 135 98 138 149 154 156 155 170 167 154 152 161 148 145 147 154 136 123 98 10 10 6 10 131 153 140 141 153 156 157 169
161 178 183 172 161 162 149 137 120 100 88 95 126 141 93 134 134 141 160 163 173 171 173 175 172 163 172 191 151 152 161 196 256 318 324 225 180 167 176 168 173 180 185
187 182 168 162 152 149 142 147 149 156 166 189 182 167 90 97 115 142 159 163 172 174 176 186 183 174 171 184 186 162 156 155 162 196 298 292 244 216 208 204 194 196 198
170 159 145 140 139 135 138 153 157 158 166 148 150 131 110 14 133 151 163 166 180 186 187 189 186 180 180 185 182 165 122 99 128 174 231 260 278 259 226 211 208 210 208
132 131 124 123 134 142 140 145 156 160 163 150 155 179 207 238 229 189 176 183 193 195 194 194 195 191 192 185 183 177 176 173 184 177 205 231 245 266 257 229 214 214 215
Height
1527 1528 1528 1529 1530 1530 1530 1531 1531 1532 1532 1533 1533 1534 1534 1535 1535 1536 1536 1537 1537 1538 1539 1539 1540 1540 1541 1542 1542 1543 1543 1544 1544 1545 1545 1546 1546 1546 1547 1547 1548 1548 1548
1526 1527 1528 1529 1529 1530 1530 1530 1531 1531 1532 1532 1533 1533 1534 1534 1535 1535 1536 1537 1537 1538 1539 1539 1540 1541 1541 1542 1543 1544 1544 1545 1545 1546 1547 1547 1547 1548 1548 1549 1549 1550 1550
1525 1526 1527 1528 1529 1529 1529 1530 1530 1531 1531 1532 1532 1533 1534 1534 1535 1535 1536 1537 1537 1538 1539 1540 1540 1541 1542 1543 1543 1544 1545 1546 1546 1547 1548 1548 1549 1549 1550 1550 1551 1551 1552
1524 1526 1526 1527 1528 1528 1529 1529 1530 1530 1530 1531 1532 1532 1533 1534 1534 1535 1536 1536 1537 1538 1539 1540 1541 1541 1542 1543 1544 1545 1545 1546 1547 1548 1548 1549 1550 1550 1551 1551 1552 1553 1553
1524 1525 1526 1527 1527 1528 1528 1528 1529 1529 1530 1530 1531 1532 1532 1533 1534 1534 1535 1536 1537 1538 1538 1540 1541 1542 1543 1543 1544 1545 1546 1547 1548 1548 1549 1550 1551 1551 1552 1552 1553 1554 1554
1523 1524 1525 1526 1526 1527 1527 1527 1528 1529 1529 1529 1530 1531 1531 1532 1533 1534 1534 1535 1536 1537 1538 1539 1540 1541 1543 1544 1545 1546 1546 1547 1548 1549 1550 1551 1551 1552 1553 1553 1554 1555 1555
1522 1523 1524 1525 1525 1526 1526 1527 1527 1528 1528 1529 1529 1530 1531 1531 1532 1533 1534 1535 1536 1536 1537 1539 1540 1541 1542 1543 1544 1546 1547 1548 1549 1549 1550 1551 1552 1553 1553 1554 1555 1556 1556
1522 1522 1523 1524 1524 1524 1525 1525 1526 1526 1527 1528 1528 1529 1530 1530 1531 1532 1533 1534 1535 1535 1536 1538 1539 1540 1542 1543 1544 1545 1547 1548 1548 1549 1550 1551 1552 1553 1554 1554 1555 1556 1557
1521 1521 1522 1522 1523 1523 1523 1524 1525 1525 1526 1526 1527 1528 1529 1529 1530 1531 1532 1533 1534 1534 1536 1537 1538 1540 1541 1542 1543 1545 1546 1547 1548 1549 1550 1551 1552 1553 1554 1554 1555 1556 1557
1520 1520 1521 1521 1521 1522 1522 1523 1523 1524 1524 1525 1526 1527 1528 1528 1529 1530 1531 1532 1533 1533 1535 1536 1537 1539 1540 1541 1543 1544 1545 1547 1548 1549 1550 1551 1552 1553 1553 1554 1555 1556 1557
1518 1519 1519 1520 1520 1520 1521 1521 1522 1522 1523 1524 1524 1525 1526 1527 1528 1529 1530 1531 1531 1532 1534 1535 1536 1538 1539 1540 1542 1543 1545 1546 1547 1548 1549 1551 1551 1552 1553 1554 1555 1556 1557
1516 1517 1517 1518 1519 1519 1519 1520 1520 1521 1521 1522 1523 1524 1525 1526 1527 1528 1528 1529 1530 1531 1532 1534 1535 1536 1538 1539 1541 1542 1544 1545 1546 1548 1549 1550 1551 1552 1552 1553 1554 1555 1556
1514 1515 1515 1516 1517 1517 1518 1518 1519 1519 1520 1520 1521 1522 1523 1524 1525 1526 1527 1528 1529 1530 1531 1532 1534 1535 1537 1538 1539 1541 1543 1544 1545 1547 1548 1549 1550 1551 1552 1553 1554 1555 1556
1512 1512 1513 1514 1515 1515 1516 1516 1517 1517 1518 1518 1519 1520 1521 1522 1523 1524 1525 1526 1527 1528 1530 1531 1532 1534 1535 1537 1538 1540 1541 1543 1544 1546 1547 1548 1549 1550 1551 1552 1553 1554 1555
1510 1510 1511 1512 1512 1513 1514 1514 1515 1515 1516 1516 1517 1518 1519 1521 1522 1523 1524 1525 1526 1527 1528 1529 1530 1532 1534 1535 1537 1538 1540 1542 1543 1545 1546 1547 1548 1549 1550 1551 1552 1553 1554
1508 1508 1509 1509 1510 1511 1511 1512 1513 1513 1514 1515 1515 1516 1518 1519 1520 1521 1522 1523 1524 1525 1527 1528 1529 1530 1532 1534 1535 1537 1539 1540 1542 1543 1544 1546 1547 1548 1549 1550 1551 1552 1553
1505 1506 1507 1507 1508 1508 1509 1510 1510 1511 1512 1513 1514 1515 1516 1517 1518 1519 1520 1521 1523 1524 1525 1526 1528 1529 1531 1532 1534 1535 1537 1539 1540 1541 1543 1544 1546 1547 1548 1549 1550 1551 1552
1502 1503 1504 1505 1505 1506 1507 1507 1508 1509 1510 1511 1512 1513 1514 1515 1516 1517 1518 1520 1521 1522 1523 1525 1526 1527 1529 1530 1532 1534 1535 1537 1538 1540 1541 1542 1544 1545 1546 1547 1548 1549 1550
1499 1500 1501 1502 1502 1503 1504 1505 1506 1507 1508 1509 1510 1511 1512 1513 1514 1515 1516 1517 1519 1520 1521 1523 1524 1526 1527 1528 1530 1532 1534 1535 1537 1538 1539 1541 1542 1544 1545 1546 1546 1547 1549
1497 1498 1499 1499 1500 1501 1502 1503 1504 1505 1505 1506 1507 1508 1509 1510 1512 1513 1514 1515 1517 1518 1519 1521 1523 1524 1525 1527 1528 1530 1532 1533 1535 1536 1537 1539 1540 1541 1543 1544 1545 1546 1547
1494 1495 1496 1497 1497 1498 1499 1500 1501 1502 1503 1504 1505 1506 1507 1508 1509 1510 1511 1513 1514 1515 1517 1519 1521 1522 1523 1525 1526 1528 1530 1531 1532 1534 1535 1536 1538 1539 1540 1541 1542 1543 1544
1491 1492 1493 1494 1495 1495 1496 1497 1498 1500 1500 1501 1502 1503 1504 1505 1506 1507 1509 1510 1511 1513 1514 1516 1518 1519 1521 1523 1524 1525 1527 1529 1529 1531 1532 1534 1535 1536 1537 1538 1539 1540 1541
1488 1489 1490 1491 1492 1493 1494 1495 1496 1497 1498 1499 1500 1500 1501 1502 1503 1504 1506 1507 1508 1509 1511 1513 1515 1516 1517 1520 1522 1523 1525 1525 1527 1528 1529 1531 1532 1533 1534 1535 1536 1537 1538
1485 1487 1487 1488 1489 1490 1491 1492 1493 1494 1494 1495 1497 1498 1499 1500 1501 1502 1503 1504 1505 1507 1508 1510 1512 1514 1515 1516 1518 1520 1522 1522 1523 1524 1526 1527 1529 1530 1531 1532 1533 1534 1535
1483 1484 1485 1486 1487 1488 1489 1489 1490 1491 1492 1493 1494 1495 1496 1497 1498 1499 1500 1501 1503 1504 1505 1507 1509 1510 1512 1513 1514 1516 1517 1519 1520 1520 1521 1523 1524 1526 1527 1528 1529 1530 1531
1481 1482 1483 1484 1484 1485 1486 1487 1488 1489 1490 1490 1491 1492 1493 1494 1495 1496 1497 1498 1499 1501 1502 1504 1505 1507 1508 1510 1511 1513 1514 1515 1516 1517 1518 1518 1520 1521 1523 1524 1525 1526 1527